BRS04 GVAC-SBBR

Flight info

Callsign BRS04
Flight time 5h 51m
Altitude 40000
Route LISOS1A MELUT UW46 KEPAS UN741 ROLID UZ18 VADOP
Aircraft E190/M-SDE3GILORVW/S

Departure

Time 2026-04-24 19:53
Airport Amílcar Cabral International Airport (GVAC)

Arrival

Time 2026-04-25 01:44
Airport Presidente Juscelino Kubitschek International Airport (SBBR)
Time Latitude Longitude Altitude Speed Heading
2026-04-24 18:54 16.73362 -22.94510 182 ft 0 kts 90°
2026-04-24 19:46 16.73362 -22.94522 182 ft 2 kts 91°
2026-04-24 19:46 16.73362 -22.94540 181 ft 2 kts 92°
2026-04-24 19:46 16.73363 -22.94557 181 ft 2 kts 95°
2026-04-24 19:47 16.73365 -22.94574 181 ft 2 kts 103°
2026-04-24 19:47 16.73371 -22.94590 181 ft 2 kts 141°
2026-04-24 19:47 16.73384 -22.94595 181 ft 1 kts 181°
2026-04-24 19:47 16.73386 -22.94595 181 ft 0 kts 181°
2026-04-24 19:49 16.73379 -22.94595 181 ft 2 kts 181°
2026-04-24 19:50 16.73105 -22.94596 181 ft 24 kts 198°
2026-04-24 19:50 16.72981 -22.94692 179 ft 24 kts 176°
2026-04-24 19:51 16.72583 -22.94687 179 ft 33 kts 180°
2026-04-24 19:51 16.72406 -22.94733 176 ft 18 kts 251°
2026-04-24 19:52 16.72403 -22.94784 172 ft 1 kts 269°
2026-04-24 19:52 16.72402 -22.94834 166 ft 13 kts 271°
2026-04-24 19:52 16.72470 -22.94888 165 ft 14 kts 358°
2026-04-24 19:52 16.72490 -22.94888 165 ft 14 kts 358°
2026-04-24 19:53 16.72828 -22.94891 166 ft 82 kts 360°
2026-04-24 19:53 16.73609 -22.94889 166 ft 141 kts
2026-04-24 19:53 16.75939 -22.94964 1236 ft 182 kts
2026-04-24 19:54 16.77317 -22.94958 1803 ft 211 kts
2026-04-24 19:54 16.78774 -22.94951 2879 ft 211 kts
2026-04-24 19:54 16.80288 -22.94953 3689 ft 223 kts 359°
2026-04-24 19:54 16.81868 -22.94962 4538 ft 234 kts 356°
2026-04-24 19:55 16.82422 -22.94968 4871 ft 235 kts 355°
2026-04-24 19:55 16.85282 -22.95630 5736 ft 275 kts 319°
2026-04-24 19:55 16.86460 -22.97099 7129 ft 265 kts 297°
2026-04-24 19:55 16.86946 -22.98950 8177 ft 267 kts 273°
2026-04-24 19:56 16.86995 -23.00870 9288 ft 269 kts 271°
2026-04-24 19:56 16.87013 -23.02834 10306 ft 273 kts 270°
2026-04-24 19:56 16.87013 -23.04831 11247 ft 277 kts 270°
2026-04-24 19:56 16.87003 -23.06850 12191 ft 280 kts 269°
2026-04-24 19:57 16.86989 -23.08899 13120 ft 284 kts 269°
2026-04-24 19:57 16.86973 -23.10976 13996 ft 288 kts 269°
2026-04-24 19:57 16.86957 -23.13089 14719 ft 294 kts 269°
2026-04-24 19:57 16.86871 -23.15252 15240 ft 309 kts 266°
2026-04-24 19:58 16.86649 -23.17578 15583 ft 326 kts 263°
2026-04-24 19:58 16.86381 -23.19946 16362 ft 331 kts 264°
2026-04-24 19:58 16.86124 -23.22344 17130 ft 335 kts 264°
2026-04-24 19:58 16.85871 -23.24784 17845 ft 340 kts 264°
2026-04-24 19:59 16.85704 -23.26421 18313 ft 344 kts 264°
2026-04-24 19:59 16.85452 -23.28914 18967 ft 347 kts 265°
2026-04-24 19:59 16.85197 -23.31434 19596 ft 350 kts 265°
2026-04-24 19:59 16.84856 -23.34788 20470 ft 352 kts 266°
2026-04-24 20:00 16.84681 -23.36515 20897 ft 354 kts 266°
2026-04-24 20:00 16.84423 -23.39046 21533 ft 356 kts 266°
2026-04-24 20:00 16.84157 -23.41661 22153 ft 358 kts 267°
2026-04-24 20:00 16.83895 -23.44218 22751 ft 360 kts 267°
2026-04-24 20:01 16.83629 -23.46826 23338 ft 363 kts 268°
2026-04-24 20:01 16.83359 -23.49459 23844 ft 365 kts 268°
2026-04-24 20:01 16.83088 -23.52103 24286 ft 368 kts 268°
2026-04-24 20:01 16.82815 -23.54763 24738 ft 370 kts 268°
2026-04-24 20:02 16.82540 -23.57438 25190 ft 372 kts 267°
2026-04-24 20:02 16.82263 -23.60130 25616 ft 374 kts 268°
2026-04-24 20:02 16.81984 -23.62837 26025 ft 376 kts 267°
2026-04-24 20:02 16.81602 -23.65553 26416 ft 381 kts 262°
2026-04-24 20:03 16.80974 -23.68255 26820 ft 385 kts 259°
2026-04-24 20:03 16.80252 -23.70956 27207 ft 388 kts 258°
2026-04-24 20:03 16.79535 -23.73642 27586 ft 389 kts 259°
2026-04-24 20:03 16.78820 -23.76380 27953 ft 392 kts 259°
2026-04-24 20:04 16.78111 -23.79132 28324 ft 394 kts 259°
2026-04-24 20:04 16.77401 -23.81907 28665 ft 396 kts 259°
2026-04-24 20:04 16.76690 -23.84686 29009 ft 399 kts 259°
2026-04-24 20:04 16.75973 -23.87491 29358 ft 401 kts 259°
2026-04-24 20:05 16.75250 -23.90313 29697 ft 403 kts 259°
2026-04-24 20:05 16.74526 -23.93140 30011 ft 405 kts 259°
2026-04-24 20:05 16.73797 -23.95984 30289 ft 407 kts 259°
2026-04-24 20:05 16.73063 -23.98846 30563 ft 408 kts 259°
2026-04-24 20:06 16.72335 -24.01681 30818 ft 410 kts 259°
2026-04-24 20:06 16.71596 -24.04556 31069 ft 412 kts 259°
2026-04-24 20:06 16.70851 -24.07454 31317 ft 413 kts 259°
2026-04-24 20:06 16.70105 -24.10357 31570 ft 415 kts 259°
2026-04-24 20:07 16.69610 -24.12279 31724 ft 416 kts 259°
2026-04-24 20:07 16.68602 -24.16196 32035 ft 418 kts 258°
2026-04-24 20:07 16.67848 -24.19125 32273 ft 419 kts 258°
2026-04-24 20:07 16.67091 -24.22056 32608 ft 417 kts 258°
2026-04-24 20:08 16.66337 -24.24976 32917 ft 417 kts 258°
2026-04-24 20:08 16.65584 -24.27894 33199 ft 416 kts 258°
2026-04-24 20:08 16.64841 -24.30770 33502 ft 415 kts 258°
2026-04-24 20:08 16.64092 -24.33678 33816 ft 414 kts 258°
2026-04-24 20:09 16.63345 -24.36567 34094 ft 413 kts 258°
2026-04-24 20:09 16.62593 -24.39469 34281 ft 414 kts 258°
2026-04-24 20:09 16.61843 -24.42362 34520 ft 413 kts 258°
2026-04-24 20:09 16.61094 -24.45250 34740 ft 412 kts 258°
2026-04-24 20:10 16.60346 -24.48135 34935 ft 412 kts 258°
2026-04-24 20:10 16.59598 -24.51017 35139 ft 411 kts 258°
2026-04-24 20:10 16.58851 -24.53897 35319 ft 412 kts 258°
2026-04-24 20:10 16.58101 -24.56783 35510 ft 411 kts 257°
2026-04-24 20:11 16.57355 -24.59657 35716 ft 411 kts 257°
2026-04-24 20:11 16.56608 -24.62529 35889 ft 410 kts 257°
2026-04-24 20:11 16.55870 -24.65367 36063 ft 410 kts 257°
2026-04-24 20:11 16.55121 -24.68240 36243 ft 410 kts 257°
2026-04-24 20:12 16.54375 -24.71107 36397 ft 410 kts 257°
2026-04-24 20:12 16.53630 -24.73965 36570 ft 409 kts 257°
2026-04-24 20:12 16.52882 -24.76834 36739 ft 409 kts 257°
2026-04-24 20:12 16.52135 -24.79694 36966 ft 407 kts 257°
2026-04-24 20:13 16.51393 -24.82534 37171 ft 405 kts 257°
2026-04-24 20:13 16.50656 -24.85353 37391 ft 403 kts 257°
2026-04-24 20:13 16.49921 -24.88163 37607 ft 401 kts 257°
2026-04-24 20:13 16.49189 -24.90963 37784 ft 400 kts 257°
2026-04-24 20:14 16.48453 -24.93779 37756 ft 404 kts 257°
2026-04-24 20:14 16.46979 -24.99403 38077 ft 401 kts 257°
2026-04-24 20:15 16.45503 -25.05031 38092 ft 403 kts 257°
2026-04-24 20:15 16.44764 -25.07844 38218 ft 400 kts 257°
2026-04-24 20:15 16.44033 -25.10628 38346 ft 398 kts 257°
2026-04-24 20:15 16.43303 -25.13408 38473 ft 396 kts 257°
2026-04-24 20:16 16.42577 -25.16166 38598 ft 394 kts 257°
2026-04-24 20:16 16.41134 -25.21650 38672 ft 393 kts 257°
2026-04-24 20:17 16.39692 -25.27129 38667 ft 397 kts 257°
2026-04-24 20:17 16.37490 -25.35475 38689 ft 399 kts 257°
2026-04-24 20:18 16.36016 -25.41050 38752 ft 397 kts 257°
2026-04-24 20:18 16.34551 -25.46586 38846 ft 395 kts 257°
2026-04-24 20:19 16.33102 -25.52057 38934 ft 394 kts 257°
2026-04-24 20:19 16.31647 -25.57545 39023 ft 392 kts 257°
2026-04-24 20:20 16.30200 -25.63000 39122 ft 390 kts 257°
2026-04-24 20:20 16.28757 -25.68431 39201 ft 388 kts 257°
2026-04-24 20:21 16.27321 -25.73827 39291 ft 385 kts 257°
2026-04-24 20:21 16.25903 -25.79148 39375 ft 382 kts 257°
2026-04-24 20:22 16.24488 -25.84454 39468 ft 379 kts 257°
2026-04-24 20:22 16.23084 -25.89718 39543 ft 375 kts 257°
2026-04-24 20:23 16.21695 -25.94916 39625 ft 371 kts 257°
2026-04-24 20:23 16.20318 -26.00062 39709 ft 366 kts 257°
2026-04-24 20:24 16.18959 -26.05137 39785 ft 361 kts 257°
2026-04-24 20:24 16.17623 -26.10124 39853 ft 355 kts 257°
2026-04-24 20:25 16.16316 -26.14992 39871 ft 349 kts 257°
2026-04-24 20:25 16.15019 -26.19823 39817 ft 344 kts 257°
2026-04-24 20:26 16.13738 -26.24586 39765 ft 339 kts 257°
2026-04-24 20:26 16.13015 -26.26909 39716 ft 336 kts 246°
2026-04-24 20:26 16.11919 -26.29044 39706 ft 333 kts 241°
2026-04-24 20:27 16.09443 -26.33049 39625 ft 324 kts 241°
2026-04-24 20:27 16.07110 -26.36962 39482 ft 313 kts 243°
2026-04-24 20:28 16.06005 -26.38892 39346 ft 309 kts 243°
2026-04-24 20:28 16.04903 -26.40790 39182 ft 305 kts 242°
2026-04-24 20:28 16.03819 -26.42636 38989 ft 302 kts 242°
2026-04-24 20:28 16.02722 -26.44496 38732 ft 301 kts 242°
2026-04-24 20:29 16.01978 -26.45752 38492 ft 302 kts 242°
2026-04-24 20:29 16.00515 -26.48222 38075 ft 302 kts 242°
2026-04-24 20:29 15.99417 -26.50073 37857 ft 299 kts 242°
2026-04-24 20:29 15.98327 -26.51910 37657 ft 297 kts 242°
2026-04-24 20:30 15.97248 -26.53729 37421 ft 295 kts 242°
2026-04-24 20:30 15.96171 -26.55548 37151 ft 295 kts 242°
2026-04-24 20:30 15.95097 -26.57358 36892 ft 295 kts 242°
2026-04-24 20:30 15.94023 -26.59168 36681 ft 293 kts 242°
2026-04-24 20:31 15.92967 -26.60946 36495 ft 291 kts 243°
2026-04-24 20:31 15.91905 -26.62733 36301 ft 290 kts 243°
2026-04-24 20:31 15.90848 -26.64514 36097 ft 289 kts 243°
2026-04-24 20:31 15.89793 -26.66291 35892 ft 289 kts 243°
2026-04-24 20:32 15.88740 -26.68065 35703 ft 288 kts 243°
2026-04-24 20:32 15.87687 -26.69837 35520 ft 287 kts 243°
2026-04-24 20:32 15.86639 -26.71600 35355 ft 287 kts 243°
2026-04-24 20:32 15.85591 -26.73363 35188 ft 286 kts 243°
2026-04-24 20:33 15.84546 -26.75119 35026 ft 286 kts 243°
2026-04-24 20:33 15.83503 -26.76874 34870 ft 285 kts 243°
2026-04-24 20:33 15.82461 -26.78624 34721 ft 285 kts 243°
2026-04-24 20:33 15.81416 -26.80381 34582 ft 285 kts 243°
2026-04-24 20:34 15.80375 -26.82130 34444 ft 285 kts 243°
2026-04-24 20:34 15.79331 -26.83883 34325 ft 285 kts 243°
2026-04-24 20:34 15.78286 -26.85639 34197 ft 285 kts 243°
2026-04-24 20:34 15.77242 -26.87392 34094 ft 285 kts 243°
2026-04-24 20:35 15.76197 -26.89145 33982 ft 285 kts 243°
2026-04-24 20:35 15.75155 -26.90895 33854 ft 286 kts 243°
2026-04-24 20:35 15.74107 -26.92652 33759 ft 286 kts 243°
2026-04-24 20:35 15.73061 -26.94406 33662 ft 286 kts 243°
2026-04-24 20:36 15.72030 -26.96137 33569 ft 286 kts 243°
2026-04-24 20:36 15.70981 -26.97895 33488 ft 286 kts 243°
2026-04-24 20:36 15.69922 -26.99669 33405 ft 286 kts 243°
2026-04-24 20:36 15.68874 -27.01424 33334 ft 286 kts 243°
2026-04-24 20:37 15.67827 -27.03179 33269 ft 286 kts 243°
2026-04-24 20:37 15.66793 -27.04912 33203 ft 286 kts 243°
2026-04-24 20:37 15.65744 -27.06668 33141 ft 286 kts 243°
2026-04-24 20:37 15.64695 -27.08424 33097 ft 286 kts 243°
2026-04-24 20:38 15.63640 -27.10188 33047 ft 286 kts 243°
2026-04-24 20:38 15.62593 -27.11941 33001 ft 286 kts 243°
2026-04-24 20:38 15.61543 -27.13697 32958 ft 286 kts 243°
2026-04-24 20:38 15.60490 -27.15458 32925 ft 287 kts 243°
2026-04-24 20:39 15.59439 -27.17215 32883 ft 287 kts 243°
2026-04-24 20:39 15.58399 -27.18953 32850 ft 287 kts 243°
2026-04-24 20:39 15.57347 -27.20711 32821 ft 287 kts 243°
2026-04-24 20:39 15.56292 -27.22474 32792 ft 287 kts 243°
2026-04-24 20:40 15.55237 -27.24236 32768 ft 287 kts 243°
2026-04-24 20:40 15.54184 -27.25995 32742 ft 287 kts 243°
2026-04-24 20:40 15.53128 -27.27757 32713 ft 287 kts 243°
2026-04-24 20:40 15.52074 -27.29515 32693 ft 287 kts 243°
2026-04-24 20:41 15.51021 -27.31274 32674 ft 287 kts 243°
2026-04-24 20:41 15.49965 -27.33036 32659 ft 287 kts 243°
2026-04-24 20:41 15.48910 -27.34795 32640 ft 287 kts 243°
2026-04-24 20:41 15.47857 -27.36550 32624 ft 287 kts 243°
2026-04-24 20:42 15.46801 -27.38310 32612 ft 287 kts 243°
2026-04-24 20:42 15.45758 -27.40050 32598 ft 287 kts 243°
2026-04-24 20:42 15.44702 -27.41811 32588 ft 288 kts 243°
2026-04-24 20:42 15.43631 -27.43594 32577 ft 288 kts 243°
2026-04-24 20:43 15.42588 -27.45331 32566 ft 288 kts 243°
2026-04-24 20:43 15.41531 -27.47090 32555 ft 288 kts 243°
2026-04-24 20:43 15.40472 -27.48854 32544 ft 288 kts 243°
2026-04-24 20:43 15.39416 -27.50613 32535 ft 288 kts 243°
2026-04-24 20:44 15.38356 -27.52376 32525 ft 288 kts 243°
2026-04-24 20:44 15.37298 -27.54135 32514 ft 288 kts 243°
2026-04-24 20:44 15.36241 -27.55894 32507 ft 288 kts 243°
2026-04-24 20:44 15.35183 -27.57653 32497 ft 288 kts 243°
2026-04-24 20:45 15.34125 -27.59412 32492 ft 288 kts 242°
2026-04-24 20:45 15.33066 -27.61172 32485 ft 288 kts 242°
2026-04-24 20:45 15.32007 -27.62931 32467 ft 288 kts 242°
2026-04-24 20:45 15.30948 -27.64689 32461 ft 288 kts 242°
2026-04-24 20:46 15.30246 -27.65855 32452 ft 288 kts 242°
2026-04-24 20:46 15.29188 -27.67613 32448 ft 288 kts 242°
2026-04-24 20:46 15.28129 -27.69371 32447 ft 288 kts 242°
2026-04-24 20:46 15.27070 -27.71129 32440 ft 288 kts 242°
2026-04-24 20:47 15.26011 -27.72887 32432 ft 288 kts 242°
2026-04-24 20:47 15.24951 -27.74644 32426 ft 288 kts 242°
2026-04-24 20:47 15.23892 -27.76402 32417 ft 288 kts 242°
2026-04-24 20:47 15.22489 -27.78729 32407 ft 288 kts 242°
2026-04-24 20:48 15.21771 -27.79918 32405 ft 288 kts 242°
2026-04-24 20:48 15.20711 -27.81676 32397 ft 288 kts 242°
2026-04-24 20:48 15.19648 -27.83438 32389 ft 288 kts 242°
2026-04-24 20:48 15.18586 -27.85197 32385 ft 288 kts 242°
2026-04-24 20:49 15.17538 -27.86932 32372 ft 288 kts 242°
2026-04-24 20:49 15.16477 -27.88690 32366 ft 288 kts 242°
2026-04-24 20:49 15.15415 -27.90448 32358 ft 288 kts 242°
2026-04-24 20:49 15.14352 -27.92206 32351 ft 288 kts 242°
2026-04-24 20:50 15.13290 -27.93964 32344 ft 288 kts 242°
2026-04-24 20:50 15.12228 -27.95722 32340 ft 288 kts 242°
2026-04-24 20:50 15.11165 -27.97480 32338 ft 288 kts 242°
2026-04-24 20:50 15.10102 -27.99238 32331 ft 288 kts 242°
2026-04-24 20:51 15.09034 -28.01004 32322 ft 288 kts 242°
2026-04-24 20:51 15.07968 -28.02766 32320 ft 288 kts 242°
2026-04-24 20:51 15.06903 -28.04525 32312 ft 288 kts 242°
2026-04-24 20:51 15.05839 -28.06283 32309 ft 288 kts 242°
2026-04-24 20:52 15.04786 -28.08022 32306 ft 288 kts 242°
2026-04-24 20:52 15.03722 -28.09782 32299 ft 288 kts 242°
2026-04-24 20:52 15.02657 -28.11541 32298 ft 289 kts 242°
2026-04-24 20:52 15.01589 -28.13304 32296 ft 289 kts 242°
2026-04-24 20:53 15.00523 -28.15063 32294 ft 289 kts 242°
2026-04-24 20:53 14.99456 -28.16822 32295 ft 289 kts 242°
2026-04-24 20:53 14.98390 -28.18581 32290 ft 289 kts 242°
2026-04-24 20:53 14.97323 -28.20341 32291 ft 289 kts 242°
2026-04-24 20:54 14.96254 -28.22104 32289 ft 289 kts 242°
2026-04-24 20:54 14.95201 -28.23840 32286 ft 289 kts 242°
2026-04-24 20:54 14.94130 -28.25604 32286 ft 289 kts 242°
2026-04-24 20:54 14.93060 -28.27368 32286 ft 289 kts 242°
2026-04-24 20:55 14.91989 -28.29131 32286 ft 289 kts 242°
2026-04-24 20:55 14.90919 -28.30896 32287 ft 289 kts 242°
2026-04-24 20:55 14.89849 -28.32656 32290 ft 289 kts 242°
2026-04-24 20:55 14.88779 -28.34416 32291 ft 289 kts 242°
2026-04-24 20:56 14.87709 -28.36177 32288 ft 289 kts 242°
2026-04-24 20:56 14.86637 -28.37943 32292 ft 289 kts 242°
2026-04-24 20:56 14.85566 -28.39705 32292 ft 289 kts 242°
2026-04-24 20:56 14.84495 -28.41467 32292 ft 290 kts 242°
2026-04-24 20:57 14.83420 -28.43235 32296 ft 290 kts 242°
2026-04-24 20:57 14.82347 -28.44999 32296 ft 290 kts 242°
2026-04-24 20:57 14.81255 -28.46726 32291 ft 292 kts 233°
2026-04-24 20:57 14.79797 -28.48201 32276 ft 296 kts 216°
2026-04-24 20:58 14.78042 -28.49320 32266 ft 297 kts 213°
2026-04-24 20:58 14.76231 -28.50360 32247 ft 298 kts 213°
2026-04-24 20:58 14.74406 -28.51392 32244 ft 298 kts 213°
2026-04-24 20:58 14.72587 -28.52427 32227 ft 299 kts 213°
2026-04-24 20:59 14.70768 -28.53468 32220 ft 299 kts 213°
2026-04-24 20:59 14.68955 -28.54511 32215 ft 299 kts 213°
2026-04-24 20:59 14.67137 -28.55558 32213 ft 299 kts 213°
2026-04-24 20:59 14.65314 -28.56607 32212 ft 299 kts 213°
2026-04-24 21:00 14.63494 -28.57654 32213 ft 300 kts 213°
2026-04-24 21:00 14.61673 -28.58703 32215 ft 300 kts 213°
2026-04-24 21:00 14.59850 -28.59751 32217 ft 300 kts 213°
2026-04-24 21:00 14.58022 -28.60803 32217 ft 300 kts 213°
2026-04-24 21:01 14.54393 -28.62890 32222 ft 301 kts 213°
2026-04-24 21:01 14.50726 -28.64998 32233 ft 302 kts 213°
2026-04-24 21:02 14.47050 -28.67110 32242 ft 303 kts 213°
2026-04-24 21:02 14.43354 -28.69234 32257 ft 304 kts 212°
2026-04-24 21:03 14.39640 -28.71366 32275 ft 306 kts 212°
2026-04-24 21:03 14.35899 -28.73514 32294 ft 309 kts 212°
2026-04-24 21:04 14.32123 -28.75681 32322 ft 312 kts 212°
2026-04-24 21:04 14.28329 -28.77857 32372 ft 316 kts 212°
2026-04-24 21:05 14.24456 -28.80077 32414 ft 321 kts 212°
2026-04-24 21:05 14.20511 -28.82340 32463 ft 327 kts 212°
2026-04-24 21:06 14.16490 -28.84643 32527 ft 334 kts 212°
2026-04-24 21:06 14.12373 -28.87002 32597 ft 343 kts 212°
2026-04-24 21:07 14.08141 -28.89425 32670 ft 353 kts 212°
2026-04-24 21:07 14.03789 -28.91915 32745 ft 363 kts 212°
2026-04-24 21:08 13.99301 -28.94482 32821 ft 375 kts 211°
2026-04-24 21:08 13.94696 -28.97114 32894 ft 387 kts 211°
2026-04-24 21:09 13.89897 -28.99856 32958 ft 400 kts 211°
2026-04-24 21:09 13.84946 -29.02683 33034 ft 413 kts 211°
2026-04-24 21:10 13.79856 -29.05587 33196 ft 422 kts 211°
2026-04-24 21:10 13.77273 -29.07060 33314 ft 426 kts 211°
2026-04-24 21:10 13.74666 -29.08547 33445 ft 430 kts 211°
2026-04-24 21:11 13.72072 -29.10026 33587 ft 432 kts 211°
2026-04-24 21:11 13.69436 -29.11528 33739 ft 435 kts 211°
2026-04-24 21:11 13.66787 -29.13038 33907 ft 437 kts 211°
2026-04-24 21:11 13.64121 -29.14557 34068 ft 438 kts 211°
2026-04-24 21:12 13.61445 -29.16081 34224 ft 440 kts 211°
2026-04-24 21:12 13.59633 -29.17112 34326 ft 440 kts 211°
2026-04-24 21:12 13.56074 -29.19139 34534 ft 442 kts 211°
2026-04-24 21:12 13.53385 -29.20669 34690 ft 442 kts 211°
2026-04-24 21:13 13.50694 -29.22201 34847 ft 442 kts 211°
2026-04-24 21:13 13.47998 -29.23734 35000 ft 442 kts 211°
2026-04-24 21:13 13.45310 -29.25260 35146 ft 441 kts 211°
2026-04-24 21:13 13.42628 -29.26785 35288 ft 440 kts 211°
2026-04-24 21:14 13.39951 -29.28306 35425 ft 439 kts 211°
2026-04-24 21:14 13.37279 -29.29825 35547 ft 439 kts 211°
2026-04-24 21:14 13.34602 -29.31348 35678 ft 440 kts 211°
2026-04-24 21:14 13.31947 -29.32856 35812 ft 442 kts 210°
2026-04-24 21:15 13.29253 -29.34385 35953 ft 443 kts 210°
2026-04-24 21:15 13.26550 -29.35918 36105 ft 444 kts 210°
2026-04-24 21:15 13.23840 -29.37455 36265 ft 445 kts 210°
2026-04-24 21:15 13.21121 -29.38998 36421 ft 446 kts 210°
2026-04-24 21:16 13.18394 -29.40544 36579 ft 447 kts 210°
2026-04-24 21:16 13.15672 -29.42088 36739 ft 448 kts 210°
2026-04-24 21:16 13.12942 -29.43635 36904 ft 448 kts 210°
2026-04-24 21:16 13.10203 -29.45187 37060 ft 449 kts 210°
2026-04-24 21:17 13.07471 -29.46736 37224 ft 449 kts 210°
2026-04-24 21:17 13.04732 -29.48286 37386 ft 450 kts 210°
2026-04-24 21:17 13.02028 -29.49817 37533 ft 450 kts 210°
2026-04-24 21:17 13.00177 -29.50865 37641 ft 450 kts 210°
2026-04-24 21:18 12.96536 -29.52928 37841 ft 451 kts 210°
2026-04-24 21:18 12.93789 -29.54482 38004 ft 451 kts 210°
2026-04-24 21:18 12.91037 -29.56039 38141 ft 451 kts 210°
2026-04-24 21:18 12.88289 -29.57594 38283 ft 452 kts 210°
2026-04-24 21:19 12.85536 -29.59151 38425 ft 452 kts 210°
2026-04-24 21:19 12.82780 -29.60708 38560 ft 452 kts 210°
2026-04-24 21:19 12.80023 -29.62266 38691 ft 453 kts 209°
2026-04-24 21:19 12.77263 -29.63824 38801 ft 453 kts 209°
2026-04-24 21:20 12.71736 -29.66947 39007 ft 454 kts 209°
2026-04-24 21:20 12.68968 -29.68510 39107 ft 455 kts 209°
2026-04-24 21:21 12.63423 -29.71641 39294 ft 456 kts 209°
2026-04-24 21:21 12.57902 -29.74756 39469 ft 457 kts 209°
2026-04-24 21:22 12.52292 -29.77843 39643 ft 458 kts 208°
2026-04-24 21:22 12.46672 -29.80925 39806 ft 459 kts 209°
2026-04-24 21:23 12.41058 -29.84075 39907 ft 461 kts 209°
2026-04-24 21:23 12.35407 -29.87261 39924 ft 466 kts 209°
2026-04-24 21:24 12.29700 -29.90476 39944 ft 471 kts 209°
2026-04-24 21:24 12.23931 -29.93725 39964 ft 475 kts 209°
2026-04-24 21:25 12.18146 -29.96981 39976 ft 479 kts 208°
2026-04-24 21:25 12.12287 -30.00279 39995 ft 481 kts 208°
2026-04-24 21:26 12.06423 -30.03577 39997 ft 481 kts 208°
2026-04-24 21:26 12.00558 -30.06872 39993 ft 481 kts 208°
2026-04-24 21:27 11.94690 -30.10169 39992 ft 481 kts 208°
2026-04-24 21:27 11.88818 -30.13466 39995 ft 482 kts 208°
2026-04-24 21:28 11.82970 -30.16747 39998 ft 482 kts 208°
2026-04-24 21:28 11.77080 -30.20052 39996 ft 483 kts 208°
2026-04-24 21:29 11.71177 -30.23360 39995 ft 483 kts 208°
2026-04-24 21:29 11.65286 -30.26662 39995 ft 483 kts 208°
2026-04-24 21:30 11.59423 -30.29947 39993 ft 484 kts 208°
2026-04-24 21:30 11.53521 -30.33251 39990 ft 484 kts 208°
2026-04-24 21:31 11.47617 -30.36555 39993 ft 484 kts 208°
2026-04-24 21:31 11.41703 -30.39863 39988 ft 484 kts 208°
2026-04-24 21:32 11.35790 -30.43168 39988 ft 485 kts 208°
2026-04-24 21:32 11.29860 -30.46481 39989 ft 485 kts 208°
2026-04-24 21:33 11.23973 -30.49769 39990 ft 486 kts 208°
2026-04-24 21:33 11.18047 -30.53077 39989 ft 486 kts 208°
2026-04-24 21:34 11.12116 -30.56387 39991 ft 486 kts 208°
2026-04-24 21:34 11.06187 -30.59694 39988 ft 486 kts 208°
2026-04-24 21:35 11.01258 -30.62441 39987 ft 486 kts 208°
2026-04-24 21:35 10.95331 -30.65746 39989 ft 486 kts 208°
2026-04-24 21:36 10.89395 -30.69052 39988 ft 486 kts 208°
2026-04-24 21:36 10.83472 -30.72349 39990 ft 486 kts 208°
2026-04-24 21:37 10.77541 -30.75649 39988 ft 486 kts 208°
2026-04-24 21:37 10.71613 -30.78948 39988 ft 485 kts 208°
2026-04-24 21:38 10.65712 -30.82231 39984 ft 485 kts 208°
2026-04-24 21:38 10.59794 -30.85522 39987 ft 484 kts 208°
2026-04-24 21:39 10.53870 -30.88804 39986 ft 484 kts 208°
2026-04-24 21:39 10.47950 -30.92064 39985 ft 484 kts 208°
2026-04-24 21:40 10.42035 -30.95322 39985 ft 483 kts 208°
2026-04-24 21:40 10.36127 -30.98579 39984 ft 483 kts 207°
2026-04-24 21:41 10.30252 -31.01812 39983 ft 483 kts 207°
2026-04-24 21:41 10.24348 -31.05061 39987 ft 482 kts 207°
2026-04-24 21:42 10.18438 -31.08314 39983 ft 482 kts 207°
2026-04-24 21:42 10.12542 -31.11552 39985 ft 481 kts 207°
2026-04-24 21:43 10.06648 -31.14795 39986 ft 481 kts 207°
2026-04-24 21:43 10.00796 -31.18013 39986 ft 481 kts 207°
2026-04-24 21:44 9.94915 -31.21241 39986 ft 480 kts 207°
2026-04-24 21:44 9.89029 -31.24473 39984 ft 481 kts 207°
2026-04-24 21:45 9.83132 -31.27709 39984 ft 481 kts 207°
2026-04-24 21:45 9.77279 -31.30919 39985 ft 481 kts 207°
2026-04-24 21:46 9.71394 -31.34146 39987 ft 481 kts 207°
2026-04-24 21:46 9.65505 -31.37374 39989 ft 481 kts 207°
2026-04-24 21:47 9.59622 -31.40596 39985 ft 481 kts 207°
2026-04-24 21:47 9.53731 -31.43823 39988 ft 481 kts 207°
2026-04-24 21:48 9.47848 -31.47045 39990 ft 481 kts 207°
2026-04-24 21:48 9.41995 -31.50251 39990 ft 481 kts 207°
2026-04-24 21:49 9.36096 -31.53477 39989 ft 481 kts 206°
2026-04-24 21:49 9.30194 -31.56703 39990 ft 481 kts 206°
2026-04-24 21:50 9.24295 -31.59926 39980 ft 482 kts 207°
2026-04-24 21:50 9.18385 -31.63158 39981 ft 482 kts 206°
2026-04-24 21:51 9.12476 -31.66384 39980 ft 483 kts 206°
2026-04-24 21:51 9.06561 -31.69615 39982 ft 483 kts 207°
2026-04-24 21:52 9.00674 -31.72827 39985 ft 483 kts 206°
2026-04-24 21:52 8.94744 -31.76064 39986 ft 484 kts 206°
2026-04-24 21:53 8.88809 -31.79301 39985 ft 484 kts 206°
2026-04-24 21:53 8.82871 -31.82537 39982 ft 484 kts 206°
2026-04-24 21:54 8.76938 -31.85773 39986 ft 484 kts 206°
2026-04-24 21:54 8.71035 -31.88988 39983 ft 485 kts 206°
2026-04-24 21:55 8.65090 -31.92225 39974 ft 485 kts 206°
2026-04-24 21:55 8.59137 -31.95466 39978 ft 485 kts 206°
2026-04-24 21:56 8.53188 -31.98705 39979 ft 485 kts 206°
2026-04-24 21:56 8.47290 -32.01914 39982 ft 485 kts 206°
2026-04-24 21:57 8.41337 -32.05149 39981 ft 485 kts 206°
2026-04-24 21:57 8.35383 -32.08386 39980 ft 485 kts 206°
2026-04-24 21:58 8.29430 -32.11620 39977 ft 486 kts 206°
2026-04-24 21:58 8.23473 -32.14858 39979 ft 486 kts 206°
2026-04-24 21:59 8.17524 -32.18089 39976 ft 486 kts 206°
2026-04-24 21:59 8.11598 -32.21307 39973 ft 486 kts 206°
2026-04-24 22:00 8.05645 -32.24538 39976 ft 486 kts 206°
2026-04-24 22:00 7.99679 -32.27774 39976 ft 486 kts 206°
2026-04-24 22:01 7.93712 -32.31010 39979 ft 486 kts 206°
2026-04-24 22:01 7.87748 -32.34244 39983 ft 487 kts 206°
2026-04-24 22:02 7.81821 -32.37456 39973 ft 487 kts 206°
2026-04-24 22:02 7.75846 -32.40693 39974 ft 487 kts 206°
2026-04-24 22:03 7.69868 -32.43931 39970 ft 487 kts 206°
2026-04-24 22:03 7.63894 -32.47165 39972 ft 487 kts 206°
2026-04-24 22:04 7.57951 -32.50382 39973 ft 488 kts 206°
2026-04-24 22:04 7.51971 -32.53619 39968 ft 488 kts 206°
2026-04-24 22:05 7.45988 -32.56855 39967 ft 488 kts 206°
2026-04-24 22:05 7.39996 -32.60095 39969 ft 488 kts 206°
2026-04-24 22:06 7.34009 -32.63332 39968 ft 488 kts 206°
2026-04-24 22:06 7.28020 -32.66569 39967 ft 489 kts 206°
2026-04-24 22:07 7.22030 -32.69805 39967 ft 489 kts 206°
2026-04-24 22:07 7.16027 -32.73047 39971 ft 489 kts 206°
2026-04-24 22:08 7.10032 -32.76284 39972 ft 489 kts 206°
2026-04-24 22:08 7.04065 -32.79505 39973 ft 489 kts 206°
2026-04-24 22:09 6.98065 -32.82743 39976 ft 490 kts 206°
2026-04-24 22:09 6.92052 -32.85986 39976 ft 490 kts 206°
2026-04-24 22:10 6.86041 -32.89228 39974 ft 490 kts 206°
2026-04-24 22:10 6.80029 -32.92470 39976 ft 490 kts 206°
2026-04-24 22:11 6.74015 -32.95711 39971 ft 490 kts 206°
2026-04-24 22:11 6.68000 -32.98953 39976 ft 491 kts 206°
2026-04-24 22:12 6.61968 -33.02202 39969 ft 491 kts 206°
2026-04-24 22:12 6.55981 -33.05426 39971 ft 491 kts 206°
2026-04-24 22:13 6.49961 -33.08668 39970 ft 491 kts 206°
2026-04-24 22:13 6.43934 -33.11912 39966 ft 491 kts 206°
2026-04-24 22:14 6.37913 -33.15152 39967 ft 491 kts 205°
2026-04-24 22:14 6.31889 -33.18391 39968 ft 491 kts 205°
2026-04-24 22:15 6.25851 -33.21619 39965 ft 491 kts 205°
2026-04-24 22:15 6.19812 -33.24847 39964 ft 491 kts 205°
2026-04-24 22:16 6.13813 -33.28055 39969 ft 491 kts 205°
2026-04-24 22:16 6.07781 -33.31281 39968 ft 491 kts 205°
2026-04-24 22:17 6.01742 -33.34508 39966 ft 491 kts 205°
2026-04-24 22:17 5.95697 -33.37739 39967 ft 491 kts 205°
2026-04-24 22:18 5.89664 -33.40962 39964 ft 491 kts 205°
2026-04-24 22:18 5.83671 -33.44162 39968 ft 491 kts 205°
2026-04-24 22:19 5.77636 -33.47385 39969 ft 491 kts 205°
2026-04-24 22:19 5.71589 -33.50613 39969 ft 492 kts 205°
2026-04-24 22:20 5.65540 -33.53842 39966 ft 492 kts 205°
2026-04-24 22:20 5.59500 -33.57065 39962 ft 492 kts 205°
2026-04-24 22:21 5.53452 -33.60290 39961 ft 492 kts 205°
2026-04-24 22:21 5.47400 -33.63518 39963 ft 493 kts 205°
2026-04-24 22:22 5.41346 -33.66747 39965 ft 493 kts 205°
2026-04-24 22:22 5.36309 -33.69432 39964 ft 493 kts 205°
2026-04-24 22:23 5.29254 -33.73192 39966 ft 493 kts 205°
2026-04-24 22:23 5.24199 -33.75885 39962 ft 493 kts 205°
2026-04-24 22:24 5.18128 -33.79120 39966 ft 494 kts 205°
2026-04-24 22:24 5.12060 -33.82352 39966 ft 494 kts 205°
2026-04-24 22:25 5.05992 -33.85584 39968 ft 494 kts 205°
2026-04-24 22:25 4.99918 -33.88817 39962 ft 494 kts 205°
2026-04-24 22:26 4.93845 -33.92049 39961 ft 494 kts 205°
2026-04-24 22:26 4.87813 -33.95259 39963 ft 494 kts 205°
2026-04-24 22:27 4.81734 -33.98495 39966 ft 494 kts 205°
2026-04-24 22:27 4.75655 -34.01728 39965 ft 494 kts 205°
2026-04-24 22:28 4.69581 -34.04959 39967 ft 494 kts 205°
2026-04-24 22:28 4.63505 -34.08189 39959 ft 494 kts 205°
2026-04-24 22:29 4.54419 -34.13020 39960 ft 494 kts 205°
2026-04-24 22:29 4.48336 -34.16253 39959 ft 494 kts 205°
2026-04-24 22:30 4.42258 -34.19511 39956 ft 494 kts 205°
2026-04-24 22:30 4.36192 -34.22763 39961 ft 494 kts 205°
2026-04-24 22:31 4.30126 -34.26012 39961 ft 494 kts 205°
2026-04-24 22:31 4.24094 -34.29241 39959 ft 494 kts 205°
2026-04-24 22:32 4.18022 -34.32491 39956 ft 494 kts 205°
2026-04-24 22:32 4.11950 -34.35741 39955 ft 494 kts 205°
2026-04-24 22:33 4.05886 -34.38986 39958 ft 494 kts 205°
2026-04-24 22:33 3.99815 -34.42233 39960 ft 494 kts 205°
2026-04-24 22:34 3.93792 -34.45455 39959 ft 494 kts 205°
2026-04-24 22:34 3.87721 -34.48702 39957 ft 494 kts 205°
2026-04-24 22:35 3.81664 -34.51941 39957 ft 494 kts 205°
2026-04-24 22:35 3.75594 -34.55186 39956 ft 494 kts 205°
2026-04-24 22:36 3.69528 -34.58428 39956 ft 494 kts 205°
2026-04-24 22:36 3.63459 -34.61672 39960 ft 494 kts 205°
2026-04-24 22:37 3.57389 -34.64916 39962 ft 495 kts 205°
2026-04-24 22:37 3.51350 -34.68143 39960 ft 495 kts 205°
2026-04-24 22:38 3.45269 -34.71391 39955 ft 495 kts 205°
2026-04-24 22:38 3.39196 -34.74635 39956 ft 495 kts 205°
2026-04-24 22:39 3.33112 -34.77884 39957 ft 495 kts 205°
2026-04-24 22:39 3.27021 -34.81137 39961 ft 496 kts 205°
2026-04-24 22:40 3.20926 -34.84391 39959 ft 496 kts 205°
2026-04-24 22:40 3.14836 -34.87642 39959 ft 496 kts 205°
2026-04-24 22:41 3.08798 -34.90866 39953 ft 493 kts 206°
2026-04-24 22:41 3.02741 -34.94098 39953 ft 493 kts 206°
2026-04-24 22:42 2.96683 -34.97331 39950 ft 493 kts 206°
2026-04-24 22:42 2.90617 -35.00567 39953 ft 494 kts 206°
2026-04-24 22:43 2.84556 -35.03800 39954 ft 494 kts 206°
2026-04-24 22:43 2.78487 -35.07038 39951 ft 494 kts 206°
2026-04-24 22:44 2.72443 -35.10262 39954 ft 494 kts 206°
2026-04-24 22:44 2.66380 -35.13491 39951 ft 493 kts 205°
2026-04-24 22:45 2.60315 -35.16708 39954 ft 493 kts 206°
2026-04-24 22:45 2.54285 -35.19908 39950 ft 493 kts 206°
2026-04-24 22:46 2.48218 -35.23128 39948 ft 493 kts 206°
2026-04-24 22:46 2.42159 -35.26344 39949 ft 493 kts 206°
2026-04-24 22:47 2.36092 -35.29563 39950 ft 493 kts 206°
2026-04-24 22:47 2.30027 -35.32781 39950 ft 494 kts 205°
2026-04-24 22:48 2.23957 -35.36001 39950 ft 494 kts 205°
2026-04-24 22:48 2.17919 -35.39204 39947 ft 495 kts 205°
2026-04-24 22:49 2.11835 -35.42432 39949 ft 495 kts 205°
2026-04-24 22:49 2.05741 -35.45664 39949 ft 496 kts 205°
2026-04-24 22:50 1.99639 -35.48900 39951 ft 496 kts 205°
2026-04-24 22:50 1.93524 -35.52143 39950 ft 497 kts 205°
2026-04-24 22:51 1.87402 -35.55389 39947 ft 498 kts 205°
2026-04-24 22:51 1.81280 -35.58635 39949 ft 498 kts 205°
2026-04-24 22:52 1.75195 -35.61861 39949 ft 498 kts 205°
2026-04-24 22:52 1.69058 -35.65115 39948 ft 499 kts 205°
2026-04-24 22:53 1.62925 -35.68366 39948 ft 499 kts 205°
2026-04-24 22:53 1.56788 -35.71619 39951 ft 499 kts 205°
2026-04-24 22:54 1.50645 -35.74875 39949 ft 499 kts 205°
2026-04-24 22:54 1.44507 -35.78128 39948 ft 499 kts 205°
2026-04-24 22:55 1.38368 -35.81382 39949 ft 499 kts 205°
2026-04-24 22:55 1.32260 -35.84618 39950 ft 500 kts 205°
2026-04-24 22:56 1.26112 -35.87876 39948 ft 500 kts 205°
2026-04-24 22:56 1.19958 -35.91137 39950 ft 501 kts 205°
2026-04-24 22:57 1.13801 -35.94399 39950 ft 501 kts 205°
2026-04-24 22:57 1.07640 -35.97664 39950 ft 501 kts 204°
2026-04-24 22:58 1.01476 -36.00929 39951 ft 501 kts 204°
2026-04-24 22:58 0.95296 -36.04203 39950 ft 502 kts 204°
2026-04-24 22:59 0.89151 -36.07458 39952 ft 503 kts 204°
2026-04-24 23:00 0.79858 -36.12381 39951 ft 504 kts 204°
2026-04-24 23:00 0.73659 -36.15665 39951 ft 505 kts 204°
2026-04-24 23:01 0.67444 -36.18957 39953 ft 505 kts 204°
2026-04-24 23:01 0.61237 -36.22244 39952 ft 506 kts 204°
2026-04-24 23:02 0.55006 -36.25545 39955 ft 506 kts 204°
2026-04-24 23:02 0.48825 -36.28819 39951 ft 506 kts 204°
2026-04-24 23:03 0.42590 -36.32121 39951 ft 507 kts 204°
2026-04-24 23:03 0.36359 -36.35420 39954 ft 507 kts 204°
2026-04-24 23:04 0.30121 -36.38725 39952 ft 507 kts 204°
2026-04-24 23:04 0.23868 -36.42036 39948 ft 507 kts 204°
2026-04-24 23:05 0.17630 -36.45340 39950 ft 507 kts 204°
2026-04-24 23:05 0.11427 -36.48626 39948 ft 507 kts 204°
2026-04-24 23:06 0.05189 -36.51929 39949 ft 507 kts 204°
2026-04-24 23:06 -0.01042 -36.55228 39962 ft 496 kts 206°
2026-04-24 23:07 -0.07104 -36.58441 39946 ft 492 kts 206°
2026-04-24 23:07 -0.13122 -36.61627 39944 ft 492 kts 205°
2026-04-24 23:08 -0.19177 -36.64834 39954 ft 493 kts 205°
2026-04-24 23:08 -0.25228 -36.68038 39940 ft 493 kts 205°
2026-04-24 23:09 -0.31295 -36.71252 39942 ft 493 kts 205°
2026-04-24 23:09 -0.37359 -36.74463 39945 ft 493 kts 205°
2026-04-24 23:10 -0.43428 -36.77677 39954 ft 493 kts 205°
2026-04-24 23:10 -0.49497 -36.80892 39954 ft 493 kts 205°
2026-04-24 23:11 -0.55518 -36.84081 39945 ft 493 kts 205°
2026-04-24 23:11 -0.61589 -36.87296 39946 ft 493 kts 205°
2026-04-24 23:12 -0.67653 -36.90509 39959 ft 493 kts 205°
2026-04-24 23:12 -0.72695 -36.93179 39948 ft 493 kts 205°
2026-04-24 23:13 -0.78763 -36.96394 39946 ft 493 kts 205°
2026-04-24 23:13 -0.85818 -37.00131 39947 ft 493 kts 205°
2026-04-24 23:14 -0.90896 -37.02820 39951 ft 494 kts 205°
2026-04-24 23:14 -0.97029 -37.05906 39955 ft 492 kts 201°
2026-04-24 23:15 -1.03288 -37.08567 39944 ft 492 kts 200°
2026-04-24 23:15 -1.09583 -37.11257 39947 ft 492 kts 200°
2026-04-24 23:16 -1.15882 -37.13976 39950 ft 493 kts 200°
2026-04-24 23:16 -1.22178 -37.16698 39951 ft 493 kts 200°
2026-04-24 23:17 -1.28478 -37.19421 39948 ft 494 kts 200°
2026-04-24 23:17 -1.34739 -37.22129 39951 ft 494 kts 200°
2026-04-24 23:18 -1.41043 -37.24854 39953 ft 494 kts 201°
2026-04-24 23:18 -1.47345 -37.27579 39954 ft 493 kts 201°
2026-04-24 23:19 -1.53651 -37.30306 39953 ft 493 kts 201°
2026-04-24 23:19 -1.59945 -37.33028 39948 ft 493 kts 200°
2026-04-24 23:20 -1.66247 -37.35753 39947 ft 492 kts 200°
2026-04-24 23:20 -1.72489 -37.38453 39952 ft 492 kts 201°
2026-04-24 23:21 -1.78773 -37.41171 39955 ft 491 kts 201°
2026-04-24 23:21 -1.85050 -37.43886 39954 ft 491 kts 201°
2026-04-24 23:22 -1.91320 -37.46599 39954 ft 490 kts 201°
2026-04-24 23:22 -1.97576 -37.49305 39949 ft 490 kts 201°
2026-04-24 23:23 -2.03832 -37.52012 39949 ft 489 kts 201°
2026-04-24 23:23 -2.10036 -37.54697 39955 ft 489 kts 201°
2026-04-24 23:24 -2.16296 -37.57406 39954 ft 489 kts 201°
2026-04-24 23:24 -2.22549 -37.60111 39951 ft 489 kts 201°
2026-04-24 23:25 -2.28800 -37.62817 39954 ft 489 kts 201°
2026-04-24 23:25 -2.35045 -37.65520 39957 ft 489 kts 201°
2026-04-24 23:26 -2.41290 -37.68224 39957 ft 489 kts 201°
2026-04-24 23:26 -2.47534 -37.70927 39953 ft 489 kts 201°
2026-04-24 23:27 -2.53740 -37.73615 39972 ft 489 kts 201°
2026-04-24 23:27 -2.59984 -37.76319 39969 ft 489 kts 201°
2026-04-24 23:28 -2.66237 -37.79027 39960 ft 489 kts 201°
2026-04-24 23:28 -2.72489 -37.81735 39962 ft 489 kts 201°
2026-04-24 23:29 -2.78732 -37.84439 39961 ft 489 kts 201°
2026-04-24 23:29 -2.84974 -37.87143 39960 ft 489 kts 201°
2026-04-24 23:30 -2.91214 -37.89846 39960 ft 489 kts 201°
2026-04-24 23:30 -2.97415 -37.92534 39959 ft 489 kts 201°
2026-04-24 23:31 -3.03653 -37.95238 39960 ft 489 kts 201°
2026-04-24 23:31 -3.09900 -37.97945 39962 ft 489 kts 201°
2026-04-24 23:32 -3.16104 -38.00744 39963 ft 489 kts 203°
2026-04-24 23:32 -3.22271 -38.03641 39962 ft 490 kts 203°
2026-04-24 23:33 -3.28448 -38.06514 39965 ft 490 kts 202°
2026-04-24 23:33 -3.34636 -38.09384 39966 ft 490 kts 202°
2026-04-24 23:34 -3.40787 -38.12236 39965 ft 490 kts 203°
2026-04-24 23:34 -3.46967 -38.15103 39967 ft 490 kts 203°
2026-04-24 23:35 -3.53125 -38.18021 39958 ft 491 kts 210°
2026-04-24 23:35 -3.55766 -38.20188 39965 ft 495 kts 229°
2026-04-24 23:35 -3.57621 -38.23056 39981 ft 498 kts 242°
2026-04-24 23:36 -3.60817 -38.29209 39959 ft 498 kts 238°
2026-04-24 23:36 -3.64463 -38.35111 39957 ft 497 kts 236°
2026-04-24 23:37 -3.68209 -38.40888 39945 ft 497 kts 236°
2026-04-24 23:37 -3.73872 -38.49612 39937 ft 497 kts 236°
2026-04-24 23:38 -3.77626 -38.55429 39939 ft 497 kts 236°
2026-04-24 23:38 -3.81238 -38.61353 39939 ft 498 kts 238°
2026-04-24 23:39 -3.84796 -38.67252 39950 ft 498 kts 237°
2026-04-24 23:39 -3.88395 -38.73189 39954 ft 498 kts 237°
2026-04-24 23:40 -3.91994 -38.79119 39966 ft 498 kts 237°
2026-04-24 23:40 -3.95596 -38.85059 39977 ft 498 kts 237°
2026-04-24 23:41 -3.99199 -38.91001 39980 ft 498 kts 238°
2026-04-24 23:41 -4.02797 -38.96935 39983 ft 498 kts 238°
2026-04-24 23:42 -4.06392 -39.02868 39982 ft 498 kts 238°
2026-04-24 23:42 -4.09961 -39.08758 39981 ft 498 kts 238°
2026-04-24 23:43 -4.13554 -39.14690 39988 ft 497 kts 238°
2026-04-24 23:43 -4.17143 -39.20615 39991 ft 497 kts 238°
2026-04-24 23:44 -4.20731 -39.26540 39997 ft 497 kts 238°
2026-04-24 23:44 -4.24321 -39.32472 39984 ft 497 kts 238°
2026-04-24 23:45 -4.27906 -39.38395 39987 ft 497 kts 238°
2026-04-24 23:45 -4.31467 -39.44280 40000 ft 497 kts 238°
2026-04-24 23:46 -4.35051 -39.50214 39994 ft 497 kts 238°
2026-04-24 23:46 -4.39348 -39.55567 40003 ft 494 kts 215°
2026-04-24 23:47 -4.45097 -39.59369 40006 ft 494 kts 213°
2026-04-24 23:47 -4.50683 -39.63323 39997 ft 495 kts 215°
2026-04-24 23:48 -4.56239 -39.67424 39999 ft 495 kts 215°
2026-04-24 23:48 -4.61778 -39.71526 40002 ft 495 kts 215°
2026-04-24 23:49 -4.67321 -39.75630 39999 ft 495 kts 215°
2026-04-24 23:49 -4.72820 -39.79703 40002 ft 494 kts 215°
2026-04-24 23:50 -4.78346 -39.83796 40012 ft 494 kts 215°
2026-04-24 23:50 -4.83875 -39.87893 40019 ft 493 kts 215°
2026-04-24 23:51 -4.89395 -39.91982 40016 ft 493 kts 215°
2026-04-24 23:51 -4.94914 -39.96073 40010 ft 493 kts 215°
2026-04-24 23:52 -5.00442 -40.00172 40017 ft 494 kts 215°
2026-04-24 23:52 -5.05937 -40.04246 40002 ft 494 kts 215°
2026-04-24 23:53 -5.11465 -40.08346 39997 ft 494 kts 215°
2026-04-24 23:53 -5.16996 -40.12448 39999 ft 494 kts 215°
2026-04-24 23:54 -5.22535 -40.16558 40011 ft 495 kts 215°
2026-04-24 23:54 -5.28070 -40.20666 40000 ft 495 kts 215°
2026-04-24 23:55 -5.33615 -40.24782 39999 ft 495 kts 215°
2026-04-24 23:55 -5.39154 -40.28895 40002 ft 495 kts 215°
2026-04-24 23:56 -5.44695 -40.33010 40010 ft 495 kts 215°
2026-04-24 23:56 -5.50234 -40.37124 39992 ft 495 kts 215°
2026-04-24 23:57 -5.55773 -40.41240 40000 ft 495 kts 215°
2026-04-24 23:57 -5.61321 -40.45362 39996 ft 496 kts 215°
2026-04-24 23:58 -5.66840 -40.49465 40011 ft 496 kts 216°
2026-04-24 23:58 -5.72387 -40.53590 40002 ft 496 kts 216°
2026-04-24 23:59 -5.77937 -40.57718 40009 ft 497 kts 216°
2026-04-24 23:59 -5.83488 -40.61847 40011 ft 497 kts 216°
2026-04-25 00:00 -5.89049 -40.65982 40011 ft 497 kts 216°
2026-04-25 00:00 -5.93673 -40.69420 40011 ft 497 kts 216°
2026-04-25 00:01 -6.00143 -40.74232 40014 ft 497 kts 216°
2026-04-25 00:01 -6.05718 -40.78380 40014 ft 498 kts 216°
2026-04-25 00:02 -6.10345 -40.81822 40015 ft 498 kts 216°
2026-04-25 00:02 -6.15899 -40.85958 40026 ft 497 kts 216°
2026-04-25 00:03 -6.21455 -40.90094 40014 ft 496 kts 216°
2026-04-25 00:03 -6.27006 -40.94229 40012 ft 495 kts 216°
2026-04-25 00:04 -6.32541 -40.98352 40011 ft 495 kts 216°
2026-04-25 00:04 -6.38966 -41.03140 40007 ft 494 kts 216°
2026-04-25 00:05 -6.43558 -41.06563 39998 ft 494 kts 216°
2026-04-25 00:05 -6.49086 -41.10685 40001 ft 494 kts 216°
2026-04-25 00:06 -6.54607 -41.14802 40005 ft 494 kts 216°
2026-04-25 00:06 -6.60139 -41.18929 40002 ft 495 kts 216°
2026-04-25 00:07 -6.65669 -41.23055 40001 ft 495 kts 216°
2026-04-25 00:07 -6.71207 -41.27188 39989 ft 495 kts 216°
2026-04-25 00:08 -6.76708 -41.31295 39997 ft 495 kts 216°
2026-04-25 00:08 -6.82277 -41.35453 39985 ft 496 kts 216°
2026-04-25 00:09 -6.87787 -41.39569 39991 ft 496 kts 216°
2026-04-25 00:09 -6.93331 -41.43711 39976 ft 496 kts 216°
2026-04-25 00:10 -6.98876 -41.47857 39973 ft 496 kts 216°
2026-04-25 00:10 -7.04419 -41.52001 39970 ft 496 kts 216°
2026-04-25 00:11 -7.09963 -41.56146 39981 ft 496 kts 216°
2026-04-25 00:11 -7.15505 -41.60293 39973 ft 496 kts 216°
2026-04-25 00:12 -7.21048 -41.64441 39975 ft 496 kts 216°
2026-04-25 00:12 -7.26591 -41.68590 39973 ft 496 kts 216°
2026-04-25 00:13 -7.32130 -41.72737 39962 ft 496 kts 216°
2026-04-25 00:13 -7.37627 -41.76855 39967 ft 496 kts 216°
2026-04-25 00:14 -7.43195 -41.81028 39959 ft 495 kts 216°
2026-04-25 00:14 -7.48690 -41.85145 39969 ft 495 kts 216°
2026-04-25 00:15 -7.54220 -41.89291 39960 ft 495 kts 216°
2026-04-25 00:15 -7.59751 -41.93439 39958 ft 495 kts 216°
2026-04-25 00:16 -7.65274 -41.97583 39961 ft 494 kts 216°
2026-04-25 00:16 -7.70783 -42.01718 39960 ft 493 kts 216°
2026-04-25 00:17 -7.76293 -42.05854 39971 ft 493 kts 216°
2026-04-25 00:17 -7.81791 -42.09983 39969 ft 493 kts 216°
2026-04-25 00:18 -7.87250 -42.14084 39966 ft 492 kts 216°
2026-04-25 00:18 -7.92745 -42.18214 39959 ft 492 kts 216°
2026-04-25 00:19 -7.98230 -42.22337 39957 ft 491 kts 216°
2026-04-25 00:19 -8.03717 -42.26463 39967 ft 491 kts 216°
2026-04-25 00:20 -8.09200 -42.30589 39952 ft 491 kts 216°
2026-04-25 00:20 -8.14676 -42.34709 39967 ft 491 kts 216°
2026-04-25 00:21 -8.20110 -42.38800 39955 ft 490 kts 216°
2026-04-25 00:21 -8.25578 -42.42917 39970 ft 490 kts 216°
2026-04-25 00:22 -8.31049 -42.47039 39968 ft 490 kts 216°
2026-04-25 00:22 -8.36511 -42.51155 39965 ft 490 kts 216°
2026-04-25 00:23 -8.41971 -42.55271 39965 ft 490 kts 216°
2026-04-25 00:23 -8.47437 -42.59393 39967 ft 490 kts 216°
2026-04-25 00:24 -8.52894 -42.63510 39968 ft 489 kts 217°
2026-04-25 00:24 -8.58318 -42.67604 39974 ft 489 kts 217°
2026-04-25 00:25 -8.63772 -42.71721 39973 ft 489 kts 217°
2026-04-25 00:25 -8.69233 -42.75844 39983 ft 489 kts 217°
2026-04-25 00:26 -8.74691 -42.79968 39979 ft 489 kts 216°
2026-04-25 00:26 -8.80146 -42.84090 39985 ft 489 kts 217°
2026-04-25 00:27 -8.85597 -42.88210 39992 ft 488 kts 216°
2026-04-25 00:27 -8.91002 -42.92297 39991 ft 488 kts 216°
2026-04-25 00:28 -8.96442 -42.96412 39986 ft 488 kts 216°
2026-04-25 00:28 -9.01881 -43.00528 39991 ft 488 kts 216°
2026-04-25 00:29 -9.07316 -43.04643 39985 ft 488 kts 216°
2026-04-25 00:29 -9.12754 -43.08762 39986 ft 488 kts 216°
2026-04-25 00:30 -9.18181 -43.12874 39991 ft 487 kts 216°
2026-04-25 00:30 -9.23611 -43.16989 39990 ft 487 kts 216°
2026-04-25 00:31 -9.29044 -43.21109 39991 ft 487 kts 216°
2026-04-25 00:31 -9.34438 -43.25201 40003 ft 487 kts 216°
2026-04-25 00:32 -9.39859 -43.29315 39987 ft 487 kts 216°
2026-04-25 00:32 -9.45281 -43.33431 39997 ft 487 kts 216°
2026-04-25 00:33 -9.50698 -43.37545 39996 ft 487 kts 216°
2026-04-25 00:33 -9.56115 -43.41661 39986 ft 487 kts 216°
2026-04-25 00:34 -9.61515 -43.45765 40000 ft 487 kts 216°
2026-04-25 00:34 -9.66937 -43.49888 39997 ft 487 kts 216°
2026-04-25 00:35 -9.72359 -43.54012 40000 ft 487 kts 216°
2026-04-25 00:35 -9.77773 -43.58133 40006 ft 487 kts 216°
2026-04-25 00:36 -9.83188 -43.62257 39993 ft 487 kts 216°
2026-04-25 00:36 -9.88567 -43.66353 39998 ft 487 kts 216°
2026-04-25 00:37 -9.93986 -43.70482 40005 ft 486 kts 216°
2026-04-25 00:37 -9.99392 -43.74604 39992 ft 487 kts 216°
2026-04-25 00:38 -10.04812 -43.78737 40010 ft 487 kts 216°
2026-04-25 00:38 -10.10225 -43.82869 40005 ft 487 kts 216°
2026-04-25 00:39 -10.15638 -43.87004 40008 ft 487 kts 216°
2026-04-25 00:39 -10.21051 -43.91140 40005 ft 487 kts 216°
2026-04-25 00:40 -10.26463 -43.95277 39996 ft 487 kts 216°
2026-04-25 00:40 -10.31846 -43.99393 39998 ft 487 kts 216°
2026-04-25 00:41 -10.37264 -44.03538 40001 ft 487 kts 216°
2026-04-25 00:41 -10.42675 -44.07681 40005 ft 487 kts 216°
2026-04-25 00:42 -10.48086 -44.11825 40001 ft 487 kts 216°
2026-04-25 00:42 -10.53500 -44.15971 40004 ft 487 kts 216°
2026-04-25 00:43 -10.58913 -44.20110 40004 ft 487 kts 216°
2026-04-25 00:43 -10.64331 -44.24253 40016 ft 487 kts 216°
2026-04-25 00:44 -10.69716 -44.28374 40013 ft 487 kts 216°
2026-04-25 00:44 -10.75135 -44.32522 40007 ft 487 kts 216°
2026-04-25 00:45 -10.80556 -44.36675 40011 ft 487 kts 216°
2026-04-25 00:45 -10.85971 -44.40824 40005 ft 487 kts 216°
2026-04-25 00:46 -10.91386 -44.44976 40004 ft 487 kts 216°
2026-04-25 00:47 -10.99509 -44.51207 40017 ft 488 kts 216°
2026-04-25 00:47 -11.05386 -44.54510 40011 ft 486 kts 202°
2026-04-25 00:48 -11.11608 -44.57220 40011 ft 486 kts 203°
2026-04-25 00:48 -11.17789 -44.60054 40002 ft 487 kts 204°
2026-04-25 00:49 -11.23951 -44.62926 40010 ft 487 kts 204°
2026-04-25 00:49 -11.30078 -44.65784 40007 ft 487 kts 204°
2026-04-25 00:50 -11.36237 -44.68658 40011 ft 487 kts 204°
2026-04-25 00:50 -11.42415 -44.71542 40005 ft 487 kts 204°
2026-04-25 00:51 -11.47544 -44.73937 40003 ft 487 kts 204°
2026-04-25 00:51 -11.53726 -44.76825 40005 ft 488 kts 204°
2026-04-25 00:52 -11.59896 -44.79710 40006 ft 488 kts 204°
2026-04-25 00:52 -11.66042 -44.82583 40017 ft 488 kts 204°
2026-04-25 00:53 -11.72226 -44.85477 40019 ft 488 kts 204°
2026-04-25 00:53 -11.78406 -44.88370 40019 ft 489 kts 204°
2026-04-25 00:54 -11.84590 -44.91266 40028 ft 489 kts 204°
2026-04-25 00:54 -11.90783 -44.94168 40022 ft 489 kts 204°
2026-04-25 00:55 -11.96985 -44.97075 40017 ft 489 kts 204°
2026-04-25 00:55 -12.03135 -44.99960 40031 ft 490 kts 204°
2026-04-25 00:56 -12.09331 -45.02868 40031 ft 490 kts 204°
2026-04-25 00:56 -12.15530 -45.05779 40030 ft 490 kts 204°
2026-04-25 00:57 -12.21731 -45.08692 40027 ft 491 kts 204°
2026-04-25 00:57 -12.27939 -45.11620 40031 ft 491 kts 204°
2026-04-25 00:58 -12.34161 -45.14547 40032 ft 492 kts 204°
2026-04-25 00:58 -12.40348 -45.17457 40033 ft 492 kts 204°
2026-04-25 00:59 -12.46572 -45.20386 40036 ft 492 kts 204°
2026-04-25 00:59 -12.52804 -45.23322 40031 ft 493 kts 204°
2026-04-25 01:00 -12.59033 -45.26257 40033 ft 493 kts 204°
2026-04-25 01:00 -12.65270 -45.29196 40041 ft 493 kts 204°
2026-04-25 01:01 -12.71511 -45.32140 40036 ft 494 kts 204°
2026-04-25 01:01 -12.77753 -45.35086 40045 ft 494 kts 204°
2026-04-25 01:02 -12.84005 -45.38038 40041 ft 494 kts 203°
2026-04-25 01:02 -12.90209 -45.40969 40048 ft 495 kts 203°
2026-04-25 01:03 -12.96466 -45.43926 40045 ft 495 kts 204°
2026-04-25 01:03 -13.02735 -45.46891 40044 ft 496 kts 203°
2026-04-25 01:04 -13.09010 -45.49860 40051 ft 496 kts 203°
2026-04-25 01:04 -13.15286 -45.52832 40052 ft 496 kts 203°
2026-04-25 01:05 -13.21561 -45.55805 40047 ft 497 kts 203°
2026-04-25 01:05 -13.27805 -45.58764 40044 ft 497 kts 203°
2026-04-25 01:06 -13.34045 -45.61855 40053 ft 498 kts 207°
2026-04-25 01:06 -13.40055 -45.65403 40047 ft 499 kts 209°
2026-04-25 01:07 -13.46079 -45.68966 40047 ft 499 kts 208°
2026-04-25 01:07 -13.52116 -45.72503 40057 ft 499 kts 208°
2026-04-25 01:08 -13.58153 -45.76035 40050 ft 499 kts 208°
2026-04-25 01:08 -13.64188 -45.79569 40049 ft 499 kts 208°
2026-04-25 01:09 -13.70192 -45.83087 40051 ft 499 kts 208°
2026-04-25 01:09 -13.76235 -45.86630 40054 ft 500 kts 208°
2026-04-25 01:10 -13.82274 -45.90173 40055 ft 500 kts 208°
2026-04-25 01:10 -13.88318 -45.93720 40053 ft 500 kts 208°
2026-04-25 01:11 -13.94358 -45.97268 40055 ft 500 kts 208°
2026-04-25 01:11 -14.00400 -46.00819 40049 ft 500 kts 208°
2026-04-25 01:12 -14.06445 -46.04373 40051 ft 500 kts 208°
2026-04-25 01:12 -14.12505 -46.07939 40055 ft 501 kts 208°
2026-04-25 01:13 -14.18553 -46.11503 40051 ft 501 kts 208°
2026-04-25 01:13 -14.24552 -46.15045 40049 ft 501 kts 208°
2026-04-25 01:14 -14.30594 -46.18614 40039 ft 501 kts 208°
2026-04-25 01:14 -14.36636 -46.22186 40045 ft 501 kts 208°
2026-04-25 01:15 -14.42688 -46.25764 40036 ft 501 kts 208°
2026-04-25 01:15 -14.48733 -46.29342 40037 ft 501 kts 208°
2026-04-25 01:16 -14.54781 -46.32924 40039 ft 501 kts 208°
2026-04-25 01:16 -14.60759 -46.36612 40038 ft 502 kts 216°
2026-04-25 01:16 -14.63323 -46.39059 40045 ft 503 kts 229°
2026-04-25 01:17 -14.65506 -46.41893 40043 ft 504 kts 232°
2026-04-25 01:17 -14.69867 -46.47560 40035 ft 504 kts 230°
2026-04-25 01:18 -14.74343 -46.53072 40034 ft 504 kts 229°
2026-04-25 01:18 -14.78885 -46.58610 40027 ft 504 kts 229°
2026-04-25 01:19 -14.83413 -46.64133 40035 ft 504 kts 229°
2026-04-25 01:19 -14.87913 -46.69627 40031 ft 504 kts 229°
2026-04-25 01:20 -14.92446 -46.75166 40033 ft 504 kts 229°
2026-04-25 01:20 -14.96973 -46.80701 40035 ft 503 kts 229°
2026-04-25 01:21 -15.01498 -46.86237 40034 ft 503 kts 229°
2026-04-25 01:21 -15.06023 -46.91778 40024 ft 504 kts 229°
2026-04-25 01:21 -15.08300 -46.94566 38397 ft 512 kts 229°
2026-04-25 01:22 -15.10619 -46.97410 36914 ft 517 kts 229°
2026-04-25 01:22 -15.12931 -47.00244 36464 ft 515 kts 229°
2026-04-25 01:22 -15.15216 -47.03047 36396 ft 514 kts 229°
2026-04-25 01:23 -15.19829 -47.08707 36427 ft 514 kts 229°
2026-04-25 01:23 -15.24430 -47.14368 36426 ft 508 kts 229°
2026-04-25 01:23 -15.26667 -47.17123 36335 ft 494 kts 229°
2026-04-25 01:24 -15.28860 -47.19824 35998 ft 487 kts 229°
2026-04-25 01:24 -15.31037 -47.22506 35383 ft 486 kts 229°
2026-04-25 01:24 -15.33200 -47.25170 34578 ft 491 kts 229°
2026-04-25 01:24 -15.35435 -47.27924 33746 ft 495 kts 229°
2026-04-25 01:25 -15.37632 -47.30633 32897 ft 498 kts 229°
2026-04-25 01:25 -15.39863 -47.33385 32058 ft 500 kts 229°
2026-04-25 01:25 -15.42109 -47.36157 31244 ft 501 kts 229°
2026-04-25 01:25 -15.44354 -47.38929 30448 ft 502 kts 229°
2026-04-25 01:26 -15.46601 -47.41702 29590 ft 502 kts 229°
2026-04-25 01:26 -15.48873 -47.44453 28695 ft 501 kts 225°
2026-04-25 01:26 -15.51414 -47.46774 27823 ft 480 kts 216°
2026-04-25 01:26 -15.54136 -47.48741 26956 ft 465 kts 212°
2026-04-25 01:27 -15.56759 -47.50574 26132 ft 456 kts 213°
2026-04-25 01:27 -15.59348 -47.52434 25326 ft 449 kts 214°
2026-04-25 01:27 -15.61893 -47.54309 24552 ft 452 kts 214°
2026-04-25 01:28 -15.67072 -47.58176 22944 ft 456 kts 215°
2026-04-25 01:28 -15.68770 -47.59448 22361 ft 452 kts 215°
2026-04-25 01:28 -15.70578 -47.60801 21763 ft 448 kts 215°
2026-04-25 01:29 -15.73088 -47.62682 20933 ft 443 kts 215°
2026-04-25 01:29 -15.75415 -47.64758 20112 ft 438 kts 230°
2026-04-25 01:29 -15.76943 -47.67461 19325 ft 435 kts 250°
2026-04-25 01:29 -15.77473 -47.70489 18582 ft 431 kts 268°
2026-04-25 01:30 -15.77373 -47.73585 17743 ft 425 kts 274°
2026-04-25 01:30 -15.77016 -47.76563 16837 ft 406 kts 280°
2026-04-25 01:30 -15.76554 -47.79406 15950 ft 393 kts 278°
2026-04-25 01:30 -15.76363 -47.82200 15058 ft 383 kts 271°
2026-04-25 01:31 -15.76408 -47.84923 14131 ft 373 kts 268°
2026-04-25 01:31 -15.76556 -47.87587 13111 ft 365 kts 267°
2026-04-25 01:31 -15.76726 -47.90196 12102 ft 360 kts 266°
2026-04-25 01:31 -15.76897 -47.92770 11125 ft 355 kts 266°
2026-04-25 01:32 -15.77065 -47.95318 10176 ft 352 kts 266°
2026-04-25 01:32 -15.77229 -47.97842 9332 ft 340 kts 266°
2026-04-25 01:32 -15.77381 -48.00200 8541 ft 317 kts 266°
2026-04-25 01:32 -15.77523 -48.02420 7762 ft 301 kts 266°
2026-04-25 01:33 -15.77660 -48.04564 7012 ft 300 kts 266°
2026-04-25 01:33 -15.77800 -48.06755 6358 ft 305 kts 266°
2026-04-25 01:33 -15.77932 -48.08814 6368 ft 274 kts 266°
2026-04-25 01:33 -15.78054 -48.10714 6330 ft 248 kts 266°
2026-04-25 01:34 -15.78165 -48.12431 6195 ft 232 kts 266°
2026-04-25 01:34 -15.78267 -48.14030 6080 ft 216 kts 266°
2026-04-25 01:34 -15.78362 -48.15537 6028 ft 204 kts 266°
2026-04-25 01:34 -15.78454 -48.16996 5963 ft 203 kts 266°
2026-04-25 01:35 -15.78547 -48.18455 5933 ft 203 kts 266°
2026-04-25 01:35 -15.78642 -48.19926 5916 ft 204 kts 266°
2026-04-25 01:35 -15.78743 -48.21397 5894 ft 204 kts 261°
2026-04-25 01:35 -15.79367 -48.22685 5843 ft 202 kts 218°
2026-04-25 01:36 -15.80635 -48.23164 5830 ft 196 kts 175°
2026-04-25 01:36 -15.81943 -48.22851 5884 ft 193 kts 159°
2026-04-25 01:36 -15.83225 -48.22417 5936 ft 194 kts 162°
2026-04-25 01:36 -15.84534 -48.22060 5959 ft 194 kts 156°
2026-04-25 01:37 -15.85538 -48.21204 5967 ft 190 kts 123°
2026-04-25 01:37 -15.86142 -48.19989 5990 ft 189 kts 110°
2026-04-25 01:37 -15.86627 -48.18719 6012 ft 190 kts 114°
2026-04-25 01:37 -15.87255 -48.17507 5977 ft 190 kts 117°
2026-04-25 01:38 -15.87791 -48.16285 5958 ft 181 kts 102°
2026-04-25 01:38 -15.87769 -48.15038 5823 ft 166 kts 81°
2026-04-25 01:38 -15.87646 -48.13897 5817 ft 152 kts 88°
2026-04-25 01:38 -15.87620 -48.12828 5793 ft 146 kts 87°
2026-04-25 01:39 -15.87553 -48.11773 5817 ft 147 kts 85°
2026-04-25 01:39 -15.87503 -48.11078 5829 ft 143 kts 85°
2026-04-25 01:39 -15.87442 -48.10082 5812 ft 136 kts 86°
2026-04-25 01:39 -15.87382 -48.09103 5813 ft 137 kts 86°
2026-04-25 01:40 -15.87319 -48.08119 5817 ft 137 kts 86°
2026-04-25 01:40 -15.87257 -48.07137 5819 ft 137 kts 86°
2026-04-25 01:40 -15.87194 -48.06152 5809 ft 137 kts 86°
2026-04-25 01:40 -15.87112 -48.04843 5685 ft 137 kts 86°
2026-04-25 01:41 -15.87070 -48.04178 5599 ft 136 kts 85°
2026-04-25 01:41 -15.87008 -48.03206 5441 ft 133 kts 86°
2026-04-25 01:41 -15.86948 -48.02253 5283 ft 133 kts 86°
2026-04-25 01:41 -15.86887 -48.01306 5128 ft 133 kts 86°
2026-04-25 01:42 -15.86827 -48.00354 4966 ft 131 kts 86°
2026-04-25 01:42 -15.86767 -47.99411 4793 ft 131 kts 86°
2026-04-25 01:42 -15.86707 -47.98463 4619 ft 132 kts 86°
2026-04-25 01:42 -15.86646 -47.97514 4445 ft 134 kts 86°
2026-04-25 01:43 -15.86585 -47.96539 4267 ft 137 kts 86°
2026-04-25 01:43 -15.86521 -47.95548 4072 ft 138 kts 87°
2026-04-25 01:43 -15.86458 -47.94552 3876 ft 138 kts 87°
2026-04-25 01:43 -15.86394 -47.93561 3665 ft 137 kts 87°
2026-04-25 01:44 -15.86332 -47.92575 3481 ft 136 kts 87°
2026-04-25 01:44 -15.86287 -47.91697 3465 ft 107 kts 86°
2026-04-25 01:44 -15.86249 -47.91079 3472 ft 51 kts 87°
2026-04-25 01:44 -15.86275 -47.90829 3481 ft 28 kts 128°
2026-04-25 01:45 -15.86312 -47.90786 3484 ft 0 kts 132°
2026-04-25 01:45 -15.86319 -47.90778 3484 ft 4 kts 132°
2026-04-25 01:46 -15.86354 -47.90737 3482 ft 11 kts 131°
2026-04-25 01:46 -15.86433 -47.90705 3479 ft 13 kts 177°
2026-04-25 01:46 -15.86521 -47.90687 3481 ft 11 kts 127°
2026-04-25 01:46 -15.86523 -47.90624 3478 ft 9 kts 86°
2026-04-25 01:47 -15.86518 -47.90553 3481 ft 11 kts 86°
2026-04-25 01:47 -15.86519 -47.90473 3482 ft 11 kts 115°
2026-04-25 01:47 -15.86583 -47.90458 3479 ft 10 kts 180°
2026-04-25 01:47 -15.86607 -47.90475 3482 ft 0 kts 255°
2026-04-25 01:48 -15.86607 -47.90496 3482 ft 0 kts 267°